Home > Weather > Fort Worth > Past weeks

Flag for USA Past Weather in Fort Worth, Texas, USA — Yesterday and Last 2 Weeks

Now
93 °F

Sunny.


Feels Like: 97 °F
Forecast: 78 / 95 °F
Wind: 12 mph from South

Location: Meacham International Airport

Current Time: Jun 26, 2016 at 12:26:23 PM

Latest Report: Jun 26, 2016 at 11:53 AM


Visibility: 10 mi

Pressure: 30.08 "Hg

Humidity: 44%

Dew Point: 68 °F

Location of Fort WorthLocation

Past Weather in Fort Worth — Graph

°F

Fort Worth Temperature Yesterday

Maximum temperature yesterday: 95 °F (at 1:53 PM)
Minimum temperature yesterday: 79 °F (at 6:53 AM)
Average temperature yesterday: 86 °F

High & Low Weather Summary for the Past Weeks

 TemperatureHumidityPressure
High98 °F (Jun 17, 3:53 PM)90% (Jun 14, 2:53 AM)30.18 "Hg (Jun 14, 2:53 AM)
Low75 °F (Jun 13, 12:53 AM)32% (Jun 20, 5:53 PM)29.75 "Hg (Jun 14, 5:53 PM)
Average86 °F62%29.95 "Hg
* Reported Jun 11 10:53 AM — Jun 26 10:53 AM, Fort Worth, Weather by CustomWeather, © 2016

Note: Actual official high and low records may vary slightly from our data, if they occured in-between our weather recording intervals... More about our weather records

Advertising

Fort Worth Weather History for the Previous 24 Hours

Scroll right to see more
 ConditionsComfort  
Time TempWeatherWind HumidityBarometerVisibility
10:53 AM
Sun, Jun 26
90 °FSunny.13 mph52%30.08 "Hg10 mi
9:53 AM88 °FSunny.12 mph59%30.08 "Hg10 mi
8:53 AM85 °FSunny.14 mph68%30.09 "Hg10 mi
7:53 AM81 °FSunny.12 mph77%30.07 "Hg10 mi
6:53 AM80 °FClear.10 mph81%30.06 "Hg10 mi
5:53 AM79 °FClear.7 mph82%30.06 "Hg10 mi
4:53 AM80 °FClear.8 mph79%30.05 "Hg10 mi
3:53 AM81 °FClear.8 mph77%30.03 "Hg10 mi
2:53 AM81 °FClear.7 mph77%30.04 "Hg10 mi
1:53 AM82 °FClear.9 mph72%30.04 "Hg10 mi
12:53 AM83 °FClear.10 mph70%30.01 "Hg10 mi
11:53 PM
Sat, Jun 25
83 °FClear.14 mph70%29.98 "Hg10 mi
10:53 PM84 °FClear.14 mph67%29.97 "Hg10 mi
9:53 PM84 °FClear.12 mph65%29.96 "Hg10 mi
8:53 PM86 °FSunny.15 mph59%29.96 "Hg10 mi
7:53 PM88 °FSunny.15 mph55%29.96 "Hg10 mi
6:53 PM89 °FSunny.18 mph50%29.94 "Hg10 mi
5:53 PM90 °FSunny.15 mph54%29.94 "Hg10 mi
4:53 PM92 °FPassing clouds.17 mph51%29.96 "Hg10 mi
3:53 PM92 °FSunny.16 mph51%29.97 "Hg10 mi
2:53 PM93 °FPassing clouds.15 mph47%29.97 "Hg10 mi
1:53 PM95 °FPassing clouds.16 mph44%29.98 "Hg10 mi
12:53 PM93 °FPartly sunny.14 mph49%29.99 "Hg10 mi
Weather by CustomWeather, © 2016

See weather overviewHow to use our weather pages